GSAT-8

Last updated on Sun Jan 18 2026 00:02:46 GMT+0000 (Coordinated Universal Time)

1 37605U 11022A 26017.59484299 .00000099 00000+0 00000+0 0 9999 2 37605 1.7412 83.7895 0008508 196.9936 105.4271 1.00271157 51709
UTC large
Height (km)
Speed (km/s)
/
Latitude / Longitude
Inclination (degrees)
Orbital Period (minutes)
Azimuth
Elevation
Range (km)
Doppler Factor

Next 0 passes for location: London (51.5072 / 0.1276)

Sorry there are no passes over London.